Wind_Speed
25 26 28 26 23 22 22 20 20 19 14 15 18 19 21 20 20 20 18 21 24 24 27 29 30 31 30 28 27 29 30 31 33 33 33 33 31 30 30 31 32 31 31 29 28 28 26 25 23 21 19 18 17 16 16 15 13 11 11 11 12 12 12 13 13 14 13 12 11 11 11 11 11 12 12 13 13 13 13 13 14 14 14 14 15 15
26 29 29 25 22 22 20 16 16 18 16 16 19 22 22 22 23 22 19 23 26 27 29 30 30 32 32 31 29 30 33 35 34 34 34 35 34 32 31 32 32 31 30 29 28 28 26 25 24 22 20 19 18 17 17 16 14 14 13 13 13 13 13 14 14 14 13 12 11 11 11 11 12 12 13 13 13 13 13 14 14 14 15 15 16 16
29 32 30 23 22 22 18 17 17 19 18 17 20 22 23 23 23 21 20 23 24 26 29 29 30 34 34 34 33 33 37 38 36 36 36 37 36 34 31 31 30 30 29 29 28 27 26 25 24 22 21 20 19 18 17 16 15 15 15 14 14 15 15 15 15 14 13 12 11 11 11 12 12 13 13 13 13 13 14 14 15 15 16 16 16 17
29 29 24 20 20 20 20 22 23 23 23 22 23 24 24 24 22 20 20 21 22 23 27 29 33 39 40 40 39 35 35 35 35 34 34 35 35 32 30 30 29 29 29 28 27 27 27 26 24 23 21 20 19 18 17 16 16 16 15 15 16 16 16 15 15 14 13 12 12 11 11 12 12 13 13 13 14 14 14 15 16 16 16 17 17 18
30 26 22 21 21 22 21 22 23 23 23 24 24 25 25 23 22 21 19 20 22 25 29 30 32 40 40 33 31 28 24 25 27 27 25 26 28 29 29 30 29 29 29 27 25 26 26 26 25 23 23 21 19 18 17 16 16 16 16 16 17 16 16 15 14 13 12 12 12 11 12 12 13 13 13 14 14 15 16 16 17 17 18 18 19 19
32 28 25 26 26 26 25 23 23 22 22 23 23 23 23 22 20 20 19 19 22 24 25 21 16 24 28 18 16 21 21 22 25 25 23 22 24 25 26 27 27 28 28 26 25 26 26 26 24 24 23 21 19 18 17 16 16 16 17 17 16 16 15 14 14 13 12 12 11 12 12 13 13 14 14 15 16 16 17 18 18 18 19 20 21 21
32 29 28 27 28 29 28 27 25 24 24 24 24 22 19 19 18 19 20 20 19 18 18 14 10 19 33 31 27 28 29 31 32 31 30 28 27 26 24 24 24 24 25 26 26 27 26 25 24 24 23 20 19 18 17 16 16 17 17 16 16 15 14 14 14 13 12 12 12 12 13 13 14 15 15 16 17 18 19 19 20 20 21 22 22 23
29 28 28 28 28 30 32 31 28 26 25 26 25 23 20 19 20 20 20 20 21 21 21 22 20 23 37 46 41 34 33 34 36 35 33 33 31 28 24 21 20 22 23 24 26 27 26 25 24 23 22 20 19 18 17 17 17 17 16 16 16 14 14 14 13 13 12 12 12 13 13 14 15 16 17 18 19 20 20 21 22 22 23 24 24 25
29 27 27 26 26 28 30 29 27 25 25 26 25 24 22 21 22 22 22 21 22 22 21 23 21 17 29 43 40 33 33 34 35 32 28 27 27 27 23 18 17 19 21 23 25 26 25 24 23 22 21 20 19 18 17 17 16 16 16 15 15 14 14 14 13 13 12 12 13 13 14 15 16 17 18 19 20 21 22 22 23 24 25 26 26 27
31 30 28 27 27 29 29 27 26 24 23 25 24 23 22 22 23 23 23 24 21 18 20 22 19 14 24 39 34 29 33 34 31 27 22 21 23 26 24 20 18 18 19 22 23 24 23 22 22 21 20 20 19 18 17 16 15 15 15 14 14 14 14 14 13 13 13 13 14 14 15 16 17 18 19 20 21 22 23 24 25 25 26 27 28 29
35 34 32 31 31 32 31 28 28 26 25 26 23 21 21 21 22 22 22 21 14 13 21 27 26 19 15 22 18 22 30 28 23 22 22 20 21 25 26 24 23 22 21 20 21 21 21 21 20 20 20 19 18 17 15 15 14 14 14 13 13 13 14 14 13 13 13 14 14 15 16 17 18 19 20 21 22 23 24 25 26 27 28 29 30 31
39 39 37 37 36 35 33 30 29 28 27 26 22 21 18 13 13 14 13 11 6 8 15 19 22 24 19 15 10 10 16 18 19 22 23 21 20 22 25 27 26 26 24 21 20 20 20 20 20 19 19 18 17 15 14 13 13 13 13 12 13 13 13 13 13 13 14 14 15 16 17 19 20 21 22 23 23 24 25 26 27 28 29 30 31 32
42 44 41 39 39 38 35 33 31 31 30 27 23 19 12 4 4 5 4 5 8 12 13 8 11 22 31 34 26 16 16 20 24 25 23 21 21 22 25 27 27 26 24 22 20 19 19 19 19 18 17 17 15 14 13 13 13 12 12 12 13 13 13 13 13 14 14 15 16 17 19 20 20 21 22 23 24 25 26 27 28 30 31 32 33 34
33 34 37 38 39 39 40 39 36 35 32 29 27 22 15 6 1 4 4 4 8 14 15 12 13 18 26 32 32 27 23 23 26 29 26 23 22 23 24 25 26 25 24 22 20 20 20 20 19 18 17 16 15 14 14 13 13 12 13 13 14 14 14 14 14 15 16 17 18 19 20 21 21 23 23 24 25 26 27 29 30 32 33 34 35 36
20 19 26 29 27 28 31 32 34 35 31 28 25 22 21 16 7 4 3 3 3 5 8 12 12 10 13 16 20 20 17 14 18 24 27 26 23 22 22 23 24 24 23 22 21 21 21 20 19 19 18 17 16 15 14 13 13 13 14 14 14 14 15 15 16 17 18 18 19 20 21 22 23 24 25 26 27 28 29 31 32 34 35 36 36 37
22 22 26 25 20 17 15 15 22 29 28 24 20 19 24 25 19 13 9 9 8 7 5 12 13 16 17 19 18 14 14 15 16 20 24 26 24 20 21 21 21 23 23 23 23 22 20 19 19 19 18 18 17 16 15 14 14 14 14 15 15 15 16 17 18 18 19 20 21 22 23 24 25 26 27 28 29 30 32 33 35 36 36 37 37 38
20 22 26 26 25 23 18 16 18 22 21 17 18 24 27 26 24 20 15 15 12 9 9 14 21 28 28 29 29 23 24 26 24 23 23 24 25 22 21 21 21 23 24 24 24 22 20 19 18 18 18 18 17 16 15 14 14 15 15 15 16 17 18 19 19 20 21 23 24 25 25 26 27 28 29 30 31 33 34 35 37 37 38 38 38 38
20 17 18 19 21 22 22 20 19 23 23 19 20 23 23 20 22 19 9 6 5 6 9 15 24 28 23 25 30 27 27 29 27 25 23 23 24 23 22 23 24 25 25 26 24 22 20 19 17 17 18 17 16 16 15 15 16 16 17 17 18 19 20 21 22 24 25 26 26 26 27 28 29 30 31 33 34 35 36 37 38 39 39 39 39 39
24 19 17 19 21 19 18 19 20 25 28 27 24 22 19 14 14 18 10 3 4 4 6 12 21 26 29 32 33 28 26 25 24 24 24 24 23 23 24 26 27 28 27 27 25 22 20 18 17 17 17 16 15 15 15 16 17 17 18 19 20 21 22 24 26 27 27 27 27 28 29 30 31 32 33 35 36 37 38 39 39 39 39 39 39 39
29 22 17 20 24 22 21 24 25 27 29 30 29 24 21 16 12 18 18 9 4 3 7 9 12 22 33 36 34 32 27 23 22 23 24 25 25 25 26 28 30 30 28 27 25 23 20 18 17 17 16 15 15 15 16 17 18 19 19 21 22 24 25 26 27 27 27 27 28 29 30 31 33 34 36 37 38 39 40 40 40 40 40 40 40 40
32 27 20 19 21 23 26 29 30 30 30 33 33 28 26 24 18 16 20 21 14 5 4 5 9 19 23 19 20 22 16 15 16 17 19 21 24 26 27 30 32 31 29 27 25 23 21 18 17 16 15 15 15 16 17 18 19 20 22 23 25 26 27 27 27 27 27 28 30 30 32 33 34 36 37 38 39 40 41 41 41 40 40 40 41 41
32 32 29 26 26 28 31 31 29 29 30 32 34 33 31 30 25 15 13 23 27 19 11 6 10 24 23 15 18 16 10 12 13 14 16 17 20 24 28 31 34 33 31 29 28 25 22 19 18 17 16 15 16 16 17 19 21 23 25 26 27 27 27 27 28 28 29 30 31 33 34 35 36 37 38 39 41 41 42 41 41 41 41 41 42 42
31 32 32 32 33 31 29 30 28 28 30 31 32 34 32 32 35 26 14 15 22 28 29 18 14 27 27 18 18 16 15 18 18 16 17 16 18 24 29 34 36 36 34 33 31 28 24 22 20 18 18 17 17 18 19 21 23 25 26 27 28 28 28 28 29 30 31 32 33 35 36 37 38 39 40 41 42 42 42 41 41 41 41 41 42 42
30 31 30 28 29 27 27 29 29 28 28 31 35 37 35 38 40 36 29 23 18 24 27 14 12 23 23 16 18 20 21 24 23 22 21 20 22 25 31 37 39 39 38 36 34 29 25 23 22 20 19 18 18 20 21 23 25 26 27 27 28 28 29 30 30 31 33 34 35 37 37 38 39 40 41 42 43 43 42 41 41 41 42 42 42 41
31 32 27 16 11 15 17 19 23 28 31 35 39 39 38 41 37 35 38 32 26 33 29 13 15 29 25 16 16 18 20 23 24 25 25 24 25 28 33 38 41 41 39 36 33 28 25 24 22 19 18 19 20 22 23 25 26 26 27 28 28 29 30 31 32 33 34 35 37 38 38 39 41 42 43 43 43 43 42 41 42 42 42 42 41 41
34 36 33 22 12 11 13 15 21 30 35 39 43 42 42 42 38 37 37 31 31 37 31 25 33 41 34 24 21 19 21 24 25 25 24 23 25 31 37 40 42 42 39 36 31 27 25 24 22 20 19 20 21 23 25 25 26 27 28 29 30 31 32 33 34 35 36 37 38 39 39 41 42 43 43 44 43 43 42 42 42 42 42 41 40 42
35 36 39 38 34 32 34 35 30 26 26 32 37 38 41 43 44 42 37 38 40 32 28 41 49 47 45 38 31 29 26 26 28 26 24 24 26 34 40 42 43 41 37 35 30 27 27 25 23 21 21 21 22 24 25 26 27 28 29 30 31 32 33 34 35 36 37 38 39 40 41 42 43 44 44 44 43 43 43 43 43 42 41 40 42 44
37 37 40 43 45 47 50 48 39 32 33 35 33 33 35 38 43 47 46 50 46 27 30 49 47 44 54 49 41 41 35 30 31 29 27 26 28 35 39 42 44 41 38 36 32 30 29 26 23 23 23 23 23 24 25 26 28 29 31 32 32 33 34 35 36 37 37 39 40 41 42 43 44 45 45 44 44 43 43 43 43 42 41 41 44 45
39 40 45 46 46 49 52 50 45 42 42 41 35 34 35 33 39 50 54 55 47 37 45 56 44 45 57 50 43 44 40 36 36 33 30 29 31 36 39 42 44 42 39 35 33 31 28 25 24 24 24 24 25 26 27 28 28 29 31 33 33 34 35 35 36 38 39 40 41 42 43 45 46 45 45 45 44 43 44 44 43 43 42 43 45 46
42 45 48 45 43 48 52 50 46 44 43 43 40 38 38 38 44 50 50 50 49 50 57 58 49 53 58 49 44 42 36 35 34 32 32 31 33 38 41 43 43 40 37 34 30 29 28 26 26 25 25 27 27 29 30 29 28 29 31 32 33 34 35 36 37 38 39 40 41 43 45 46 46 46 45 45 44 44 45 45 44 44 44 45 46 47
45 47 48 41 37 45 55 53 48 46 45 46 47 48 49 50 49 47 45 46 48 53 58 56 54 61 59 50 48 46 40 35 32 33 35 35 37 40 42 44 43 38 34 30 28 30 30 28 28 27 28 29 30 31 32 29 28 29 31 32 33 34 35 36 38 38 39 40 42 44 46 47 47 46 46 46 45 45 46 45 45 45 46 47 47 46
46 45 46 40 32 42 57 53 48 51 47 45 52 59 62 63 54 46 46 48 49 52 54 52 56 63 59 50 49 49 46 40 36 36 36 36 39 41 42 44 40 34 30 28 30 31 31 30 30 30 30 31 33 34 32 29 29 30 32 32 33 34 34 35 37 38 40 42 43 45 47 47 47 46 46 47 46 46 47 46 47 48 48 48 46 44
48 45 48 43 32 41 56 49 43 41 30 32 53 64 66 66 59 52 54 55 54 55 53 54 59 62 57 51 50 50 48 46 43 40 39 40 41 42 42 41 35 31 30 31 33 33 31 32 32 32 33 34 35 34 31 29 30 31 31 32 32 33 34 36 37 39 41 42 44 46 47 47 47 47 47 47 47 48 48 48 49 49 48 47 44 42
46 46 49 45 32 36 49 45 33 23 18 32 57 63 59 60 59 57 60 61 59 58 57 59 61 59 56 54 52 51 50 48 45 44 43 42 42 42 43 40 35 33 34 35 37 35 32 33 33 34 36 36 34 33 31 31 31 30 31 31 32 34 35 37 39 40 41 41 43 45 46 46 47 47 47 48 49 49 50 50 50 48 46 44 42 40
44 45 48 46 36 34 38 31 16 12 27 50 60 57 56 58 55 52 54 57 58 57 58 59 59 58 57 55 53 51 49 45 42 41 41 41 43 43 43 41 39 39 40 41 38 34 31 32 34 36 36 35 33 32 30 30 30 29 30 31 32 34 35 36 38 39 39 41 42 44 45 45 46 47 48 49 50 50 51 50 48 45 43 41 40 39
47 46 46 46 41 31 24 20 15 19 36 49 49 51 55 53 48 44 46 52 54 51 53 56 56 56 56 53 52 51 48 44 41 39 40 42 44 44 43 43 44 43 42 38 33 30 30 32 35 36 35 33 31 30 29 29 29 29 30 31 32 33 34 36 37 38 38 40 41 42 42 43 44 45 47 48 50 50 49 47 44 41 40 39 39 39
53 50 48 44 40 34 26 27 31 32 36 44 49 51 49 46 44 40 39 47 49 43 43 47 46 48 50 49 50 50 48 46 43 41 41 42 43 45 45 45 44 40 36 31 28 29 32 34 35 35 33 31 29 28 28 28 29 30 30 31 33 33 34 35 35 35 36 38 38 39 40 41 42 43 45 47 47 46 44 42 41 39 39 39 38 38
55 52 51 45 40 41 35 26 20 16 24 45 56 51 45 44 42 34 30 41 49 42 36 35 34 37 40 40 42 46 47 47 45 45 43 41 43 45 43 42 39 33 29 28 29 31 33 33 34 32 30 30 28 28 29 29 30 31 31 32 32 32 32 32 32 32 33 33 34 35 37 39 40 42 43 44 44 43 41 40 39 38 38 38 38 37
53 52 54 48 38 37 33 21 13 13 25 44 47 40 38 37 34 25 22 35 49 43 33 29 29 30 32 33 37 43 46 48 49 48 43 40 40 39 36 33 30 27 27 29 31 32 33 33 32 31 30 29 28 28 29 30 30 31 30 30 30 30 30 29 29 30 31 31 33 34 36 38 40 41 42 42 41 40 39 38 37 37 37 37 36 36
48 47 49 46 39 37 34 26 22 26 33 40 37 30 26 23 21 15 12 23 37 32 24 25 26 26 28 30 35 40 43 45 45 42 38 36 33 30 28 26 26 27 29 31 32 33 33 33 32 30 29 29 29 29 30 30 31 30 29 29 29 29 29 28 29 30 31 32 34 35 36 37 38 39 39 38 37 36 36 35 35 36 36 35 35 35
45 46 46 47 45 42 38 30 27 30 36 40 38 31 22 13 14 18 16 21 27 19 13 17 21 22 25 27 31 35 35 35 34 33 30 28 25 24 25 25 27 29 31 32 33 33 32 31 30 29 29 29 29 30 30 30 30 29 29 29 29 29 29 30 31 32 32 33 33 34 34 35 35 35 34 34 34 33 33 34 34 34 35 35 36 37
39 38 37 42 45 42 40 35 27 28 37 40 34 29 25 19 19 23 24 22 18 12 10 15 17 18 20 20 22 24 24 25 26 26 25 25 25 26 26 27 29 30 31 32 32 31 30 29 29 29 29 29 30 30 30 30 30 29 30 30 29 29 30 31 32 32 32 32 32 32 32 32 32 32 31 31 32 32 32 33 34 35 35 36 37 38
36 32 31 39 43 37 33 27 16 18 32 38 30 27 29 27 24 24 22 20 18 15 14 16 17 17 17 17 18 20 21 23 24 25 26 26 26 26 26 28 29 31 31 31 30 29 29 28 28 29 29 30 30 30 30 31 31 31 31 30 29 30 31 32 31 31 31 31 30 30 30 30 30 30 30 31 31 32 33 34 34 36 36 37 37 38
32 30 29 36 38 30 25 23 19 21 28 30 27 28 30 28 26 23 21 21 20 18 17 16 15 15 17 18 19 20 21 22 22 23 24 24 25 26 27 28 28 28 27 27 27 27 27 27 28 29 30 30 31 31 31 31 31 31 31 29 28 29 30 30 29 29 29 29 28 28 28 29 30 30 31 32 32 33 34 35 35 36 36 37 37 38
26 29 30 31 32 29 27 26 26 27 26 22 21 23 25 26 26 24 22 21 19 18 18 17 17 17 17 18 17 18 18 19 20 22 23 25 26 26 25 25 24 24 24 25 25 26 26 27 29 29 30 30 30 31 31 31 31 31 29 28 28 29 29 28 28 28 28 28 28 28 29 30 30 31 32 33 34 35 36 36 36 36 36 37 37 38
23 25 28 27 25 26 27 27 26 26 23 19 16 16 18 20 21 20 20 20 19 19 19 19 19 18 16 15 15 16 17 20 22 24 25 26 25 24 23 23 23 23 24 25 25 26 27 28 29 29 30 30 30 31 32 31 31 30 28 28 28 28 28 28 28 28 28 28 29 29 30 31 31 32 34 35 36 36 37 37 37 37 37 37 37 37
21 19 20 21 20 18 19 21 22 22 20 18 16 15 16 18 18 19 21 20 19 19 19 19 18 16 14 15 17 18 20 23 24 25 24 24 23 22 22 22 22 23 24 25 26 27 28 29 29 30 30 31 31 31 31 31 30 29 28 28 28 28 28 29 29 29 29 29 30 31 31 32 33 34 35 36 36 37 37 38 38 38 38 38 37 37
18 18 18 19 20 19 18 18 19 19 19 20 20 20 20 21 21 21 21 19 19 19 17 16 16 15 16 18 19 21 22 23 23 24 23 22 22 22 21 22 23 24 25 26 27 28 29 29 30 31 31 31 31 30 30 29 29 28 29 29 28 28 29 29 29 30 30 30 31 32 33 34 34 35 36 36 37 38 38 39 39 40 40 40 39 40
20 21 21 20 20 21 23 23 22 22 22 23 23 22 22 21 21 20 19 19 18 17 16 16 17 18 19 20 20 21 21 20 21 21 21 21 21 21 21 22 23 24 26 27 27 28 29 30 31 32 32 31 30 29 28 28 29 29 30 30 29 30 30 30 31 32 32 33 34 34 35 36 36 37 37 38 38 39 39 40 41 42 42 42 43 43
25 25 24 22 22 22 23 22 21 22 22 22 22 21 20 19 19 19 19 19 18 17 17 18 19 19 19 19 19 19 18 18 19 18 19 20 20 21 22 23 24 25 26 27 27 29 30 31 31 32 31 29 28 28 28 29 29 30 30 30 31 31 32 32 33 33 34 35 36 36 37 38 38 38 39 39 40 40 41 42 43 43 44 45 46 47
27 26 24 23 23 23 23 21 20 21 21 21 20 20 19 19 19 19 19 17 17 18 19 20 20 19 18 18 17 17 17 17 17 17 18 19 20 21 23 23 24 25 26 27 28 29 30 31 31 30 29 29 28 29 29 29 29 29 29 30 30 31 32 32 33 34 35 35 36 37 38 38 39 40 40 41 42 43 43 44 45 46 47 47 48 49
Wind_Direction
256 258 258 258 260 266 274 279 282 283 272 262 263 257 259 267 267 268 270 271 274 276 277 280 282 283 283 280 278 277 276 277 278 279 280 281 279 275 271 269 269 268 269 270 269 269 269 266 264 260 255 247 240 235 231 231 233 240 250 256 259 263 267 267 263 262 263 265 268 270 273 276 279 281 283 284 286 288 289 291 292 292 293 292 292 291
257 258 258 259 264 269 273 274 275 274 263 255 261 262 264 268 270 273 271 270 274 275 277 281 281 280 281 279 276 273 273 275 278 280 282 281 280 277 272 268 268 269 269 268 267 267 266 263 259 257 251 243 238 235 233 235 241 249 256 261 266 270 270 266 262 262 263 265 268 270 273 277 279 280 282 284 287 290 292 293 293 292 292 292 291 290
259 259 261 263 267 270 264 252 249 254 255 253 260 266 268 269 273 276 273 272 275 277 280 283 281 281 282 281 277 274 275 279 282 281 279 278 277 276 273 270 268 267 265 263 264 264 262 259 256 254 247 240 238 237 235 239 245 253 259 264 269 271 267 262 260 260 262 263 266 270 274 276 279 281 283 286 288 292 293 293 292 291 291 290 289 288
260 263 266 262 260 262 257 254 252 251 255 259 262 265 267 272 278 278 276 277 279 279 281 284 284 283 283 282 280 278 277 278 280 280 278 276 275 273 269 265 262 261 260 260 260 260 258 255 253 250 244 238 237 238 237 240 247 254 260 265 267 266 262 258 258 259 261 263 267 271 276 278 281 283 285 289 291 292 293 291 290 289 288 288 287 285
261 265 268 262 260 260 256 259 260 256 259 265 268 267 269 274 276 276 279 284 286 283 283 289 290 286 286 287 288 285 278 274 276 279 279 276 274 270 264 259 256 255 256 257 256 254 253 252 250 247 241 237 236 236 236 240 247 254 260 263 263 260 256 254 254 258 262 267 271 275 279 283 285 287 290 291 292 293 292 290 288 287 286 285 284 283
263 261 261 261 263 263 260 260 259 261 265 268 270 272 276 278 275 270 270 275 283 286 289 295 293 287 288 289 290 289 284 280 281 279 276 276 276 274 269 261 255 251 251 252 250 249 249 248 246 243 237 235 235 234 237 242 248 255 259 259 258 254 249 250 253 258 264 270 276 280 283 286 289 291 291 292 292 290 289 287 284 283 283 283 282 280
262 259 258 257 257 260 261 259 257 262 267 267 268 269 272 276 273 266 263 264 272 280 286 285 276 285 286 281 277 277 277 278 279 279 278 275 276 279 275 264 254 248 246 247 245 244 245 244 242 238 233 232 234 236 239 245 250 254 256 255 252 247 244 248 253 259 266 273 278 282 284 287 289 290 290 290 289 287 286 284 282 281 281 281 281 279
255 255 256 255 255 258 259 259 260 263 263 263 267 267 265 266 265 266 268 265 266 272 274 273 273 279 281 282 284 279 274 274 274 278 280 276 273 274 272 261 250 245 242 241 241 241 241 241 238 233 230 231 234 237 242 246 250 250 250 248 245 242 244 249 255 261 267 274 278 282 285 286 287 287 288 288 287 285 284 283 281 282 282 283 282 280
254 255 256 258 257 258 259 262 264 264 260 260 264 267 266 266 265 267 269 266 271 276 270 266 268 268 271 278 286 287 280 277 279 284 283 275 268 262 258 253 246 243 241 239 238 238 238 236 233 228 228 231 235 239 243 244 245 244 243 242 240 239 243 249 255 261 267 273 277 280 282 284 284 285 285 285 285 284 283 283 282 283 284 284 283 281
252 254 257 258 256 257 259 261 262 260 257 258 262 265 266 268 270 269 270 271 274 270 258 258 253 249 275 281 282 284 282 282 289 292 282 269 259 248 243 244 248 246 242 239 236 234 234 231 227 226 228 232 236 238 240 240 239 240 240 239 239 240 242 247 253 259 266 270 273 276 279 281 283 283 284 284 283 283 283 283 283 284 284 283 283 281
247 250 252 253 254 256 258 259 261 259 257 258 261 264 268 273 274 272 273 271 272 260 255 259 249 234 272 293 287 282 285 290 294 288 279 271 257 245 240 244 252 250 245 240 233 229 226 224 223 225 228 231 234 236 235 236 236 236 238 239 240 242 244 247 252 258 263 267 271 275 278 280 281 281 281 281 281 281 281 282 283 283 283 283 283 283
249 248 248 250 253 255 257 258 260 260 259 259 258 259 266 276 276 275 270 252 239 262 264 265 252 231 233 264 286 296 291 292 289 284 284 280 266 251 244 245 249 247 243 238 230 224 220 221 223 224 228 231 233 234 233 234 235 237 240 241 242 244 246 249 254 259 263 268 273 276 278 278 278 278 278 279 279 279 281 282 283 283 284 285 285 285
251 252 252 254 255 256 258 256 256 256 255 253 249 244 242 245 266 254 225 211 225 251 263 259 234 227 237 255 266 269 265 270 278 282 283 278 269 258 247 245 245 241 238 234 227 224 220 220 222 224 229 233 234 235 235 236 239 241 244 245 246 248 251 255 259 263 267 272 275 276 276 276 276 276 277 278 279 280 282 283 284 285 286 286 287 287
251 259 257 256 257 257 256 252 252 253 250 246 242 233 217 187 235 247 209 225 242 250 255 236 216 231 248 262 271 272 269 268 270 272 272 268 265 260 250 244 241 237 232 230 226 222 219 219 224 229 233 234 235 237 239 241 242 245 248 250 251 253 256 261 266 269 273 274 274 274 274 275 276 278 279 280 281 283 284 285 286 286 287 287 287 288
241 257 257 257 259 258 257 256 255 254 252 251 250 241 226 211 208 235 200 198 256 281 246 207 201 231 247 262 275 279 278 274 272 269 266 263 260 257 250 241 235 232 227 225 222 217 219 225 231 235 236 236 238 239 241 243 246 249 251 253 254 256 260 264 269 273 275 275 275 275 277 279 280 281 281 281 282 284 285 286 286 286 286 286 287 287
237 252 258 258 259 255 256 257 247 243 246 250 245 230 226 226 228 239 252 264 285 318 250 200 215 243 250 260 265 266 274 276 279 276 266 259 254 250 248 240 231 226 222 219 218 218 226 235 238 238 237 239 239 239 242 245 249 252 253 255 258 261 264 268 273 276 278 280 281 282 283 283 283 282 282 283 284 284 284 284 284 284 284 285 285 286
231 247 255 254 256 253 251 251 235 227 233 231 217 218 228 233 230 235 260 275 275 288 261 226 240 253 259 267 263 255 263 267 269 272 266 256 249 244 243 240 230 222 219 218 219 225 235 240 239 238 238 239 239 240 245 249 252 255 256 260 263 267 270 273 277 280 282 284 284 284 284 282 282 282 282 283 283 283 282 282 282 282 282 283 284 286
234 242 252 250 253 252 249 250 233 215 219 217 213 225 234 233 227 226 258 296 250 266 260 231 244 256 255 263 267 258 255 262 263 262 260 255 248 240 237 235 228 221 219 220 224 232 240 239 238 240 240 239 239 242 248 252 254 257 259 263 267 270 273 276 278 281 282 282 282 281 281 280 280 280 280 280 280 280 280 280 280 281 282 283 285 287
237 241 250 243 244 249 245 242 224 208 216 225 229 230 224 218 216 213 221 267 223 249 277 236 243 252 244 249 263 261 256 265 265 256 255 253 246 241 237 231 224 221 222 225 231 238 241 241 243 244 242 239 240 243 248 252 255 258 261 264 267 270 273 276 278 278 278 277 277 277 277 277 278 278 278 278 278 279 279 279 280 281 282 284 287 289
235 237 246 241 241 245 238 232 222 214 217 223 227 225 219 220 216 209 214 225 206 223 273 257 246 254 254 256 260 259 262 269 265 259 258 253 247 246 243 236 228 225 228 232 237 241 242 246 248 246 244 243 243 245 250 254 257 259 262 264 268 271 274 275 275 274 274 274 273 273 274 275 276 276 276 277 277 278 278 279 280 281 283 286 289 291
233 233 243 243 237 233 231 234 237 237 235 229 226 221 217 218 218 223 231 231 225 230 270 266 261 260 263 268 264 258 263 268 265 268 263 252 248 246 243 239 232 228 231 236 240 242 244 250 251 249 249 246 245 248 252 257 259 260 263 266 270 273 273 273 272 271 271 271 271 272 273 274 274 275 275 276 277 278 278 279 281 283 285 288 291 293
232 233 239 238 234 233 238 247 251 251 249 244 242 239 234 231 226 230 246 234 227 231 238 241 275 271 267 268 267 263 259 260 266 270 261 247 242 241 240 238 232 229 233 239 243 245 248 256 258 257 256 251 250 253 255 257 259 261 264 268 270 271 270 270 269 269 269 270 271 272 273 273 274 275 276 277 277 278 279 280 282 285 287 290 292 295
241 236 234 235 241 248 253 255 251 247 245 243 245 246 245 242 231 221 228 236 226 232 241 247 270 274 271 262 255 255 255 263 267 261 250 242 241 240 237 234 231 230 233 239 243 245 251 260 262 258 256 253 253 254 253 255 258 261 265 267 268 268 267 267 266 267 268 270 271 272 272 273 274 275 276 277 277 278 279 281 284 286 288 291 293 296
234 228 228 233 243 251 256 256 251 248 244 238 242 245 243 242 237 230 235 244 241 237 238 240 257 264 268 258 243 248 256 261 262 257 250 246 246 241 234 232 231 231 234 238 240 243 252 259 260 259 258 257 256 253 252 255 257 261 264 265 266 266 265 265 265 267 269 271 271 272 272 273 274 275 276 276 277 278 280 282 284 286 289 291 293 296
235 227 222 220 241 250 250 252 244 237 237 239 243 245 243 243 240 236 237 240 252 251 237 222 251 256 260 262 250 249 254 252 251 256 257 252 246 239 232 230 230 232 235 236 238 245 257 262 262 263 262 259 256 253 252 254 258 261 263 264 264 264 264 265 265 267 269 270 271 272 273 274 275 275 275 276 277 278 280 282 284 287 289 291 293 297
246 239 228 216 216 229 234 240 240 237 237 240 244 244 243 242 235 234 235 231 242 251 238 229 248 255 256 259 259 254 252 251 251 253 255 252 244 235 231 230 230 231 232 234 240 252 260 262 263 264 265 262 257 253 253 255 259 262 264 263 263 263 264 265 265 266 268 269 271 273 273 274 275 275 275 275 276 278 280 282 285 287 289 291 295 299
244 241 237 232 232 239 247 250 251 251 245 244 249 250 248 246 240 234 232 230 236 245 243 241 248 256 257 256 258 260 258 259 259 255 252 251 239 230 229 229 229 230 230 234 244 257 260 260 264 267 269 265 257 252 253 257 261 263 264 263 263 263 263 264 265 266 268 270 272 273 274 274 274 274 274 275 276 277 280 283 286 287 289 292 296 299
240 239 244 245 244 249 256 256 253 256 259 259 262 260 254 251 245 233 230 238 240 236 250 252 250 256 261 259 257 260 260 259 261 259 256 250 236 229 229 229 229 228 230 236 248 259 260 260 265 271 271 265 258 255 257 261 264 263 262 262 261 262 262 262 264 266 269 271 272 273 274 274 273 272 273 274 275 277 280 283 286 287 290 293 296 298
240 243 249 249 248 253 257 256 253 253 259 263 263 262 258 252 245 237 237 245 241 231 250 259 254 257 266 267 263 262 262 262 262 261 257 248 236 232 231 230 228 227 232 243 255 257 254 259 268 271 268 261 256 257 261 267 268 263 260 260 260 260 261 262 265 267 269 271 272 273 273 272 271 272 272 273 275 278 280 283 285 288 291 293 295 296
239 245 249 246 246 251 253 253 252 250 253 256 257 258 258 253 250 247 247 251 247 243 255 262 259 261 267 267 264 265 267 266 259 251 248 242 236 235 233 229 226 228 240 252 253 245 246 260 268 263 255 251 253 259 268 273 271 263 259 258 258 259 261 263 266 267 269 270 272 272 271 270 271 271 272 273 276 278 280 283 285 288 291 293 294 294
235 239 244 242 240 247 251 251 251 249 250 253 254 254 255 254 252 249 248 250 247 247 256 259 256 261 266 264 262 264 263 262 254 245 243 240 236 235 232 227 227 236 248 249 239 237 246 257 259 252 248 252 259 266 272 275 268 261 257 257 258 260 261 263 264 266 267 269 271 271 271 270 270 271 272 274 275 277 280 283 286 288 291 292 292 291
234 236 240 240 238 247 251 252 252 252 252 252 253 254 253 250 248 245 246 248 245 247 253 251 251 260 268 266 263 261 258 257 254 247 242 238 237 234 230 230 235 245 246 235 233 242 251 253 251 250 254 260 267 271 274 273 265 260 259 259 260 261 261 261 262 263 265 268 269 270 270 270 270 270 272 273 275 277 280 283 286 289 290 290 289 288
237 237 239 238 236 245 252 255 255 256 252 245 251 256 255 252 250 247 247 249 248 248 249 248 253 264 270 266 261 261 259 257 254 251 244 238 235 232 231 235 239 239 233 233 242 251 253 250 249 253 259 265 270 273 273 267 262 259 259 258 258 257 256 257 257 259 262 264 267 268 269 269 269 270 271 272 274 276 279 283 286 288 288 286 286 287
239 239 240 239 236 244 253 255 252 245 235 246 255 260 261 258 255 251 251 254 252 250 251 254 259 264 265 263 262 263 264 263 262 259 250 240 235 233 234 237 237 236 240 250 256 256 251 248 251 257 264 268 271 271 267 262 260 260 259 258 257 256 255 255 256 256 258 260 263 264 266 267 268 269 270 271 273 276 279 282 284 285 285 284 285 286
241 241 242 240 237 243 249 248 239 225 239 252 260 263 263 261 258 255 257 260 257 254 254 257 260 261 262 263 263 263 265 266 265 258 246 238 236 236 237 240 244 250 258 262 262 257 252 252 256 262 267 269 268 265 262 261 262 262 262 261 260 259 258 257 257 257 258 259 260 262 264 266 267 268 269 271 273 276 278 281 282 282 283 283 284 285
245 245 244 239 235 238 236 225 225 245 250 254 259 260 259 259 257 255 257 262 263 260 257 258 261 261 260 260 261 262 262 261 258 252 241 235 235 236 239 244 251 259 263 263 260 257 254 255 260 264 267 266 263 262 262 264 265 264 264 263 262 261 261 259 259 259 260 260 261 263 265 266 267 268 269 271 273 275 277 278 279 280 282 283 284 285
246 244 242 237 234 234 229 227 240 253 259 258 257 257 258 259 260 260 261 266 270 268 262 263 265 261 257 257 259 259 259 256 253 247 239 232 233 238 243 250 256 260 261 258 256 255 256 260 264 266 265 263 262 264 266 267 266 265 264 263 263 263 262 261 262 262 262 262 263 264 265 266 266 267 268 270 271 273 275 277 279 281 282 283 283 284
246 244 242 237 233 234 233 236 244 250 257 256 255 257 259 260 263 266 267 270 273 271 264 262 261 259 257 256 256 255 253 250 248 246 241 236 237 243 249 254 257 258 256 256 257 260 262 265 266 264 263 263 265 267 268 267 266 265 264 263 263 262 262 263 263 263 263 263 264 264 264 265 266 266 268 269 271 274 276 278 280 281 281 281 281 282
241 240 239 235 232 230 228 229 231 230 246 255 259 262 261 261 265 263 258 267 272 270 264 260 257 257 254 250 251 251 249 246 248 251 250 246 247 250 253 254 254 254 257 259 262 264 265 265 263 263 264 267 268 268 267 266 265 264 263 262 262 262 264 265 264 264 263 264 263 263 263 264 265 266 268 270 272 275 277 277 278 278 278 279 280 281
232 231 230 229 229 229 227 229 237 239 246 253 258 263 265 265 261 239 225 261 271 271 267 261 256 252 248 245 247 249 248 249 253 256 256 255 254 253 251 251 253 255 258 260 261 262 262 262 263 265 267 268 268 267 265 264 264 264 263 263 263 265 266 267 266 266 265 264 264 263 264 264 266 268 270 272 274 275 275 276 277 278 279 280 281 281
223 225 225 226 229 231 229 233 239 243 247 250 252 257 261 250 221 211 224 258 268 270 263 248 240 238 237 237 241 245 248 251 253 254 254 254 253 252 252 252 253 254 256 257 258 258 259 261 263 265 266 266 265 265 265 264 265 265 264 265 266 268 269 269 267 267 266 266 266 267 268 269 270 272 274 275 276 276 277 278 279 281 281 282 282 281
219 221 222 225 229 231 232 235 240 245 247 247 247 248 245 226 213 224 239 246 248 244 227 215 216 223 225 226 231 236 239 243 246 249 252 254 256 256 255 252 251 251 253 254 255 256 258 261 262 263 264 264 263 263 264 264 265 265 266 267 270 271 270 268 267 268 268 269 269 270 271 272 273 275 276 277 278 279 280 281 282 282 282 282 281 281
229 223 220 225 229 229 230 234 238 246 246 245 242 239 235 229 227 234 235 229 228 228 214 201 203 212 218 224 232 236 241 247 252 256 258 259 258 256 252 249 248 249 250 252 254 257 259 260 260 261 261 261 261 262 263 264 266 267 269 271 272 270 268 268 268 269 269 269 271 272 273 274 275 276 277 278 280 280 281 281 281 281 281 280 280 280
233 225 221 228 231 226 223 226 230 239 244 243 238 234 232 231 232 232 230 228 230 228 221 220 228 236 242 248 253 255 258 258 259 259 258 255 252 249 246 246 247 248 251 253 254 256 257 258 258 258 258 258 260 262 264 266 268 270 272 272 270 268 267 267 267 267 268 270 272 273 274 275 275 277 278 279 279 279 280 280 280 279 279 279 279 279
228 227 226 230 231 227 226 228 230 236 241 240 236 231 228 229 233 233 231 233 236 240 247 258 268 273 273 272 269 265 260 254 251 250 247 245 244 244 245 246 247 249 250 251 253 254 255 255 255 256 257 260 262 265 268 270 271 271 271 269 267 265 266 266 267 268 270 272 273 274 275 275 276 277 278 279 279 279 279 278 278 278 278 278 279 279
226 228 229 229 228 229 232 234 234 237 238 236 232 222 216 221 229 234 240 248 257 266 276 284 288 287 282 273 263 253 246 243 242 241 240 242 244 246 247 248 248 248 249 250 252 252 253 254 256 259 261 264 267 269 270 270 270 270 268 266 265 265 266 266 268 270 271 272 273 274 275 276 278 278 279 279 279 278 278 278 278 278 279 279 280 281
224 223 227 231 232 235 237 238 239 243 244 243 243 241 241 245 251 257 266 275 283 287 290 291 289 283 270 257 247 241 237 237 238 239 241 246 249 249 248 247 246 247 248 250 251 252 254 257 260 263 265 267 269 270 269 269 268 267 266 265 264 265 265 267 269 270 272 273 275 276 277 278 279 279 279 279 278 278 278 278 279 279 280 281 282 283
232 231 235 242 245 246 250 253 254 256 257 257 258 261 264 269 272 276 281 286 289 289 288 284 277 268 256 248 243 241 240 240 241 244 247 247 247 245 244 244 246 247 248 249 252 254 257 260 262 264 266 267 268 268 267 267 266 266 265 265 264 264 265 267 270 271 273 275 276 278 279 279 279 280 280 279 279 278 279 279 280 280 281 282 283 283
248 245 246 250 251 250 254 258 260 260 262 263 265 267 270 274 277 280 282 285 286 284 279 270 262 254 249 247 246 247 247 246 246 247 245 243 242 243 244 246 247 247 249 251 253 255 258 260 263 265 266 267 267 266 265 265 264 264 264 264 264 265 267 269 272 274 276 277 278 279 280 280 280 280 279 279 278 278 278 278 279 280 281 281 281 282
253 253 252 253 255 257 260 263 264 263 264 265 266 268 268 270 272 277 282 284 282 276 267 259 253 249 249 250 250 250 247 245 245 244 243 243 243 243 244 246 247 249 252 254 255 257 260 262 264 266 267 268 266 263 262 262 262 262 263 264 266 269 271 274 277 279 280 281 281 281 281 281 280 279 278 278 277 276 276 276 276 277 278 279 279 279
256 258 259 259 261 264 266 267 266 265 263 262 262 261 262 265 272 278 281 276 267 259 254 251 250 250 250 248 246 245 243 243 242 242 243 243 243 244 246 248 251 254 256 258 260 261 263 265 267 269 269 267 264 262 261 261 262 263 265 268 271 274 277 280 282 283 283 283 283 282 281 281 280 279 279 278 277 277 276 275 275 276 276 277 277 278
Height
3158 3157 3156 3159 3161 3161 3162 3163 3163 3163 3165 3165 3165 3165 3164 3164 3164 3165 3165 3163 3163 3161 3160 3160 3159 3157 3158 3158 3158 3157 3157 3156 3156 3156 3155 3154 3155 3156 3156 3156 3156 3156 3157 3158 3157 3157 3158 3159 3159 3160 3160 3161 3161 3162 3162 3163 3164 3164 3165 3166 3166 3167 3167 3167 3168 3168 3168 3168 3168 3168 3169 3169 3169 3169 3169 3170 3170 3170 3170 3170 3170 3170 3170 3169 3169 3169
3155 3153 3153 3158 3160 3160 3161 3161 3161 3161 3162 3163 3162 3162 3162 3162 3162 3163 3163 3161 3161 3160 3158 3158 3156 3154 3154 3155 3156 3155 3152 3152 3153 3153 3152 3151 3151 3152 3152 3152 3152 3153 3153 3154 3154 3154 3155 3156 3156 3157 3158 3158 3159 3159 3160 3161 3162 3163 3164 3164 3165 3165 3165 3166 3166 3166 3166 3166 3167 3167 3167 3167 3168 3168 3168 3168 3168 3168 3168 3168 3168 3168 3168 3168 3168 3168
3151 3149 3152 3157 3158 3158 3159 3159 3160 3160 3160 3161 3160 3160 3159 3160 3160 3160 3160 3159 3159 3157 3155 3155 3152 3150 3150 3151 3151 3151 3149 3148 3149 3149 3149 3147 3147 3147 3148 3149 3149 3149 3150 3150 3151 3151 3152 3153 3154 3155 3155 3156 3156 3157 3158 3159 3160 3161 3162 3163 3163 3163 3164 3164 3164 3165 3165 3165 3165 3165 3166 3166 3166 3166 3166 3166 3166 3166 3167 3167 3167 3167 3167 3167 3166 3166
3148 3148 3151 3155 3156 3156 3156 3156 3157 3158 3158 3158 3158 3158 3157 3158 3159 3158 3157 3157 3156 3155 3153 3152 3148 3145 3145 3145 3145 3147 3146 3144 3144 3144 3144 3143 3142 3143 3144 3144 3145 3145 3146 3147 3148 3148 3149 3150 3151 3152 3153 3153 3154 3155 3155 3157 3157 3159 3160 3160 3161 3161 3162 3162 3162 3162 3163 3163 3163 3163 3164 3164 3164 3164 3165 3165 3165 3165 3165 3165 3165 3166 3165 3165 3165 3165
3145 3147 3150 3152 3153 3153 3154 3154 3154 3155 3155 3156 3156 3156 3155 3157 3158 3156 3156 3155 3153 3152 3151 3150 3145 3137 3139 3140 3139 3141 3142 3141 3141 3140 3141 3139 3138 3139 3139 3139 3140 3141 3142 3143 3144 3145 3146 3147 3148 3150 3150 3151 3152 3153 3153 3154 3155 3156 3158 3158 3159 3159 3159 3160 3160 3160 3160 3161 3161 3161 3162 3162 3162 3162 3163 3163 3163 3163 3164 3164 3164 3164 3164 3164 3164 3164
3143 3146 3147 3149 3150 3150 3151 3152 3152 3153 3153 3153 3153 3153 3154 3155 3155 3155 3156 3154 3151 3149 3148 3149 3144 3133 3134 3138 3136 3136 3137 3137 3137 3137 3138 3137 3135 3135 3135 3135 3136 3137 3138 3139 3141 3142 3143 3144 3146 3147 3148 3149 3150 3150 3151 3152 3153 3154 3155 3156 3156 3157 3157 3157 3157 3158 3158 3158 3159 3159 3159 3160 3160 3161 3161 3161 3162 3162 3162 3163 3163 3163 3163 3163 3163 3163
3140 3142 3144 3147 3148 3148 3148 3149 3150 3151 3151 3151 3151 3151 3152 3152 3153 3153 3153 3153 3150 3148 3146 3148 3146 3134 3128 3131 3133 3134 3133 3133 3133 3133 3134 3134 3132 3132 3132 3132 3132 3133 3134 3136 3137 3139 3140 3142 3143 3144 3146 3147 3148 3148 3149 3150 3151 3152 3153 3153 3154 3154 3154 3155 3155 3155 3155 3156 3156 3157 3157 3158 3158 3159 3159 3160 3160 3161 3161 3161 3161 3161 3161 3161 3161 3161
3137 3139 3141 3143 3145 3145 3145 3146 3147 3149 3149 3148 3147 3149 3150 3151 3151 3150 3151 3150 3148 3147 3145 3145 3147 3139 3124 3121 3127 3129 3129 3128 3128 3129 3129 3129 3129 3129 3129 3129 3129 3130 3131 3132 3134 3135 3137 3139 3140 3142 3143 3145 3145 3146 3147 3148 3148 3149 3150 3151 3151 3152 3152 3152 3152 3153 3153 3154 3154 3154 3155 3156 3156 3157 3157 3158 3158 3159 3159 3159 3159 3159 3159 3159 3159 3159
3135 3137 3138 3140 3142 3141 3141 3143 3145 3147 3146 3145 3145 3147 3148 3149 3149 3148 3148 3148 3147 3146 3142 3141 3146 3140 3120 3115 3123 3124 3123 3122 3122 3125 3125 3125 3125 3126 3126 3126 3126 3127 3128 3129 3131 3132 3134 3136 3138 3139 3141 3142 3143 3144 3144 3145 3146 3147 3148 3148 3149 3149 3149 3150 3150 3151 3151 3151 3152 3152 3153 3153 3154 3154 3155 3156 3156 3156 3157 3157 3157 3157 3157 3157 3157 3156
3133 3133 3136 3137 3138 3138 3139 3141 3142 3143 3143 3142 3144 3144 3145 3146 3146 3147 3146 3145 3146 3142 3136 3138 3144 3138 3118 3110 3119 3121 3118 3118 3118 3120 3121 3121 3122 3122 3123 3124 3124 3125 3125 3126 3128 3130 3132 3133 3135 3137 3138 3139 3140 3141 3142 3142 3143 3144 3145 3146 3146 3147 3147 3147 3148 3148 3149 3149 3149 3150 3150 3151 3151 3152 3152 3153 3153 3154 3154 3154 3154 3154 3154 3154 3154 3153
3129 3130 3132 3133 3134 3134 3136 3138 3138 3140 3140 3140 3142 3142 3143 3144 3143 3144 3142 3143 3144 3135 3130 3134 3138 3139 3123 3109 3113 3117 3114 3116 3116 3116 3117 3118 3118 3119 3120 3121 3121 3123 3123 3124 3126 3127 3129 3131 3133 3134 3135 3136 3137 3138 3139 3139 3140 3141 3142 3143 3143 3144 3144 3145 3145 3146 3146 3146 3147 3147 3148 3148 3149 3149 3150 3150 3150 3151 3151 3151 3151 3151 3151 3150 3150 3150
3125 3126 3127 3128 3130 3131 3133 3135 3135 3137 3137 3138 3140 3140 3141 3142 3141 3141 3140 3142 3141 3129 3126 3130 3132 3136 3125 3109 3111 3115 3113 3114 3115 3114 3114 3115 3116 3116 3117 3118 3119 3120 3121 3122 3123 3125 3127 3128 3130 3131 3132 3134 3135 3135 3136 3137 3138 3139 3139 3140 3141 3141 3141 3142 3143 3143 3143 3144 3144 3145 3145 3146 3146 3146 3147 3147 3147 3147 3148 3148 3148 3147 3147 3147 3147 3147
3120 3121 3124 3125 3127 3128 3130 3132 3132 3132 3133 3134 3136 3138 3140 3141 3140 3139 3138 3138 3135 3126 3124 3127 3129 3127 3116 3107 3111 3114 3113 3114 3113 3112 3113 3113 3113 3113 3114 3115 3116 3117 3118 3120 3121 3123 3125 3126 3127 3129 3130 3131 3132 3133 3133 3134 3135 3136 3137 3137 3138 3138 3139 3139 3140 3140 3140 3141 3141 3142 3143 3143 3143 3143 3144 3144 3144 3144 3144 3144 3144 3144 3144 3143 3143 3143
3118 3118 3119 3121 3122 3124 3125 3125 3126 3126 3128 3129 3131 3134 3136 3139 3140 3137 3135 3133 3128 3123 3122 3125 3127 3120 3109 3106 3109 3109 3111 3112 3111 3110 3110 3111 3111 3111 3111 3112 3113 3114 3116 3117 3119 3121 3122 3124 3125 3126 3127 3128 3129 3130 3131 3132 3133 3133 3134 3134 3135 3135 3136 3136 3137 3137 3138 3138 3139 3139 3140 3140 3140 3140 3140 3140 3141 3141 3141 3141 3140 3140 3140 3139 3139 3139
3116 3114 3113 3115 3116 3118 3118 3119 3121 3122 3124 3125 3127 3130 3130 3132 3134 3131 3128 3127 3124 3122 3121 3124 3123 3113 3107 3106 3105 3106 3109 3109 3109 3109 3108 3108 3109 3109 3109 3110 3111 3112 3114 3115 3117 3118 3120 3121 3122 3123 3124 3126 3126 3127 3128 3129 3130 3131 3131 3131 3132 3133 3133 3134 3134 3135 3135 3135 3136 3136 3136 3136 3137 3137 3137 3137 3137 3137 3137 3137 3137 3136 3136 3136 3136 3135
3112 3109 3109 3112 3113 3115 3116 3117 3119 3120 3121 3122 3125 3127 3126 3126 3128 3126 3123 3122 3123 3121 3118 3118 3114 3105 3103 3103 3102 3105 3106 3107 3108 3107 3106 3107 3107 3108 3108 3108 3109 3110 3112 3113 3115 3116 3117 3119 3120 3121 3122 3123 3124 3125 3126 3127 3127 3128 3128 3128 3129 3130 3130 3131 3131 3132 3132 3132 3132 3132 3133 3133 3133 3134 3134 3134 3134 3134 3133 3133 3133 3133 3132 3132 3132 3131
3109 3107 3106 3108 3110 3112 3114 3115 3117 3117 3117 3119 3120 3120 3120 3123 3125 3125 3122 3121 3123 3121 3113 3109 3105 3101 3102 3099 3098 3103 3103 3103 3106 3105 3105 3105 3105 3106 3107 3107 3108 3109 3110 3112 3113 3114 3115 3116 3118 3119 3120 3121 3122 3123 3123 3124 3124 3125 3125 3126 3127 3128 3128 3128 3128 3128 3128 3128 3129 3129 3129 3130 3130 3131 3131 3131 3131 3130 3130 3129 3129 3129 3129 3128 3128 3127
3106 3105 3104 3106 3106 3108 3111 3113 3114 3114 3114 3115 3116 3116 3118 3122 3123 3124 3124 3121 3123 3120 3107 3101 3100 3099 3100 3094 3091 3097 3099 3100 3102 3103 3103 3103 3103 3104 3105 3106 3107 3107 3109 3109 3110 3112 3113 3114 3115 3116 3117 3118 3119 3120 3120 3121 3121 3122 3123 3124 3124 3125 3125 3125 3125 3125 3125 3125 3126 3126 3127 3127 3127 3128 3127 3127 3127 3126 3126 3126 3125 3125 3125 3124 3124 3123
3104 3103 3102 3103 3103 3105 3108 3109 3110 3110 3111 3111 3112 3114 3116 3119 3119 3122 3123 3120 3120 3118 3105 3097 3096 3093 3091 3088 3086 3090 3094 3097 3099 3100 3101 3101 3101 3102 3102 3104 3104 3105 3106 3107 3108 3110 3111 3112 3113 3114 3115 3116 3116 3117 3117 3118 3119 3120 3120 3121 3122 3122 3122 3123 3123 3123 3123 3123 3123 3123 3123 3124 3124 3124 3124 3123 3123 3122 3122 3122 3121 3121 3121 3120 3120 3119
3101 3101 3099 3098 3100 3104 3104 3104 3104 3106 3108 3109 3109 3111 3112 3114 3115 3116 3116 3114 3114 3114 3104 3096 3091 3083 3080 3082 3085 3087 3091 3094 3096 3096 3097 3098 3099 3101 3101 3102 3103 3103 3104 3105 3106 3108 3109 3110 3110 3111 3112 3112 3113 3114 3115 3116 3116 3117 3118 3118 3119 3119 3120 3120 3120 3120 3120 3120 3120 3120 3120 3121 3120 3120 3120 3119 3119 3118 3118 3118 3118 3117 3117 3116 3115 3114
3098 3098 3097 3095 3097 3099 3097 3097 3099 3101 3103 3104 3105 3107 3108 3110 3112 3112 3111 3109 3110 3109 3103 3097 3085 3073 3075 3080 3082 3085 3088 3090 3092 3093 3094 3096 3097 3098 3099 3100 3100 3101 3102 3103 3104 3105 3106 3107 3107 3108 3109 3109 3110 3111 3112 3113 3113 3114 3115 3115 3116 3117 3117 3117 3117 3117 3117 3116 3116 3117 3117 3117 3117 3116 3116 3116 3115 3114 3114 3114 3114 3113 3113 3112 3111 3110
3093 3093 3093 3092 3091 3091 3092 3094 3097 3099 3099 3099 3100 3101 3102 3105 3108 3109 3106 3102 3104 3102 3097 3095 3081 3067 3072 3080 3078 3081 3085 3086 3089 3091 3091 3093 3094 3095 3096 3097 3098 3099 3099 3100 3101 3103 3103 3104 3104 3105 3105 3106 3107 3108 3109 3110 3111 3111 3112 3113 3113 3114 3114 3114 3114 3114 3113 3113 3113 3113 3113 3113 3113 3112 3112 3111 3111 3111 3110 3110 3110 3109 3108 3107 3106 3105
3090 3090 3089 3088 3087 3088 3091 3092 3094 3095 3095 3096 3097 3097 3100 3101 3100 3101 3099 3096 3099 3096 3092 3094 3082 3064 3068 3077 3077 3079 3082 3083 3087 3088 3089 3091 3092 3093 3094 3094 3095 3096 3096 3097 3098 3100 3100 3100 3101 3102 3102 3103 3104 3105 3106 3107 3108 3108 3109 3110 3110 3110 3110 3110 3110 3110 3110 3109 3109 3109 3109 3109 3109 3108 3108 3107 3107 3106 3106 3106 3105 3105 3104 3103 3102 3101
3087 3086 3086 3086 3086 3087 3087 3087 3089 3091 3092 3092 3091 3092 3095 3093 3092 3095 3095 3094 3095 3090 3088 3093 3082 3064 3066 3073 3075 3078 3079 3080 3083 3084 3086 3088 3088 3090 3090 3091 3092 3092 3093 3094 3095 3096 3097 3097 3098 3099 3099 3100 3101 3102 3103 3103 3104 3105 3105 3106 3106 3106 3106 3106 3106 3106 3106 3106 3105 3105 3105 3104 3104 3104 3103 3103 3102 3102 3102 3101 3101 3100 3099 3098 3097 3096
3082 3081 3083 3085 3086 3085 3084 3083 3083 3084 3086 3085 3084 3087 3088 3088 3092 3094 3093 3095 3090 3080 3085 3089 3074 3062 3067 3071 3072 3075 3076 3077 3079 3080 3082 3085 3085 3086 3086 3087 3088 3088 3089 3090 3091 3093 3093 3094 3095 3096 3097 3098 3098 3099 3100 3100 3101 3101 3101 3102 3102 3102 3102 3102 3102 3102 3101 3101 3101 3101 3101 3100 3100 3099 3099 3098 3098 3097 3097 3096 3096 3095 3094 3093 3093 3092
3076 3075 3077 3080 3080 3078 3075 3072 3072 3074 3078 3079 3079 3082 3083 3085 3089 3087 3089 3092 3081 3072 3081 3080 3064 3060 3068 3069 3069 3072 3073 3074 3075 3077 3078 3081 3082 3083 3083 3083 3084 3084 3086 3087 3088 3089 3090 3091 3092 3093 3094 3095 3095 3096 3097 3097 3098 3097 3098 3098 3098 3098 3098 3098 3098 3098 3097 3097 3097 3097 3096 3096 3095 3095 3094 3094 3093 3093 3092 3092 3091 3090 3090 3089 3088 3087
3071 3068 3069 3070 3069 3067 3064 3065 3067 3069 3072 3073 3073 3076 3078 3079 3082 3083 3085 3079 3070 3072 3074 3066 3060 3062 3063 3065 3068 3069 3070 3071 3072 3074 3075 3076 3078 3078 3079 3080 3080 3081 3082 3083 3085 3086 3086 3088 3089 3090 3091 3091 3092 3092 3093 3094 3094 3094 3094 3093 3094 3094 3094 3094 3094 3093 3093 3093 3093 3092 3092 3092 3091 3090 3090 3089 3089 3088 3088 3087 3087 3086 3085 3084 3083 3083
3065 3062 3062 3063 3062 3061 3060 3063 3067 3067 3066 3067 3069 3072 3073 3074 3076 3077 3072 3063 3067 3075 3063 3053 3063 3063 3054 3060 3067 3065 3067 3069 3068 3071 3072 3072 3074 3074 3075 3076 3076 3077 3078 3079 3081 3082 3083 3084 3085 3086 3086 3087 3088 3088 3089 3090 3090 3090 3089 3089 3090 3090 3090 3090 3089 3089 3088 3088 3088 3088 3088 3087 3086 3086 3086 3085 3084 3084 3083 3083 3082 3081 3081 3080 3079 3079
3059 3057 3058 3058 3057 3057 3057 3059 3063 3064 3063 3063 3065 3066 3066 3069 3068 3063 3057 3057 3066 3068 3052 3048 3062 3057 3047 3056 3062 3060 3065 3066 3065 3068 3068 3069 3071 3071 3071 3072 3072 3073 3074 3075 3077 3078 3079 3080 3081 3081 3082 3083 3084 3084 3085 3085 3085 3085 3085 3085 3086 3086 3086 3085 3085 3084 3084 3084 3084 3084 3083 3082 3081 3081 3081 3081 3080 3080 3079 3078 3078 3077 3076 3075 3075 3074
3053 3052 3053 3053 3053 3052 3051 3053 3056 3059 3060 3060 3060 3060 3060 3059 3055 3051 3052 3056 3061 3058 3047 3049 3057 3050 3045 3053 3056 3057 3061 3061 3062 3064 3064 3065 3067 3066 3067 3067 3067 3069 3070 3072 3074 3074 3075 3076 3076 3077 3077 3078 3079 3079 3080 3080 3080 3080 3080 3081 3081 3081 3081 3081 3080 3080 3080 3080 3080 3080 3078 3077 3077 3077 3077 3077 3077 3076 3074 3074 3073 3072 3072 3071 3070 3069
3047 3046 3048 3049 3049 3046 3044 3046 3050 3053 3055 3054 3055 3055 3052 3047 3045 3047 3050 3052 3054 3050 3044 3049 3052 3041 3039 3049 3053 3053 3055 3056 3058 3059 3059 3062 3062 3062 3063 3063 3064 3066 3067 3069 3071 3071 3072 3072 3072 3072 3073 3074 3074 3074 3075 3075 3075 3075 3076 3076 3076 3076 3076 3076 3075 3076 3075 3075 3076 3075 3074 3073 3073 3073 3073 3072 3072 3071 3070 3070 3069 3068 3067 3066 3065 3064
3042 3043 3043 3045 3045 3040 3037 3040 3045 3047 3049 3050 3048 3043 3037 3035 3039 3043 3043 3044 3045 3043 3042 3047 3044 3031 3032 3045 3048 3047 3050 3052 3053 3054 3055 3058 3058 3059 3060 3060 3061 3063 3064 3066 3066 3066 3067 3067 3067 3068 3068 3069 3069 3069 3069 3069 3069 3070 3071 3071 3072 3071 3071 3071 3071 3071 3071 3071 3071 3070 3069 3069 3068 3068 3068 3068 3067 3067 3066 3065 3064 3063 3062 3061 3061 3060
3038 3038 3039 3040 3039 3033 3032 3037 3041 3043 3045 3041 3032 3024 3022 3027 3035 3038 3036 3035 3036 3037 3038 3037 3031 3026 3033 3041 3041 3042 3045 3047 3048 3050 3051 3052 3054 3055 3056 3056 3057 3059 3060 3061 3061 3061 3062 3062 3063 3063 3063 3064 3064 3063 3064 3064 3064 3065 3066 3066 3066 3066 3066 3066 3066 3066 3066 3066 3066 3064 3064 3064 3064 3064 3064 3063 3063 3062 3061 3061 3059 3059 3058 3056 3056 3055
3032 3033 3034 3035 3033 3029 3030 3034 3037 3037 3032 3022 3015 3015 3019 3024 3028 3028 3026 3026 3028 3030 3030 3027 3026 3029 3032 3034 3034 3037 3039 3041 3044 3046 3047 3048 3050 3051 3051 3051 3052 3053 3054 3055 3055 3056 3056 3057 3058 3058 3058 3058 3058 3058 3058 3058 3059 3060 3060 3060 3061 3060 3061 3061 3060 3060 3061 3061 3060 3059 3059 3059 3059 3060 3059 3059 3058 3057 3057 3056 3055 3054 3052 3051 3051 3050
3027 3028 3029 3029 3028 3026 3027 3031 3031 3023 3013 3008 3010 3015 3016 3016 3019 3021 3020 3021 3023 3025 3024 3023 3024 3025 3026 3028 3030 3032 3034 3037 3041 3042 3043 3044 3045 3045 3046 3046 3047 3048 3049 3049 3050 3051 3051 3052 3053 3053 3053 3054 3053 3053 3053 3053 3054 3055 3055 3055 3055 3055 3055 3055 3055 3056 3056 3055 3054 3054 3054 3055 3055 3055 3055 3054 3053 3052 3052 3051 3050 3049 3048 3047 3046 3045
3021 3023 3023 3023 3023 3023 3023 3024 3017 3007 3003 3006 3009 3009 3008 3010 3013 3016 3015 3013 3016 3018 3018 3017 3017 3020 3023 3024 3025 3027 3030 3033 3035 3036 3037 3038 3038 3040 3040 3041 3042 3043 3044 3044 3045 3046 3047 3048 3048 3048 3048 3048 3048 3048 3049 3049 3049 3049 3049 3050 3050 3050 3050 3050 3050 3051 3051 3050 3049 3049 3050 3050 3050 3050 3050 3049 3048 3047 3047 3046 3045 3044 3043 3042 3041 3041
3015 3016 3017 3017 3016 3016 3016 3012 3008 3005 3003 3002 3001 3001 3003 3005 3008 3010 3009 3006 3008 3012 3012 3012 3013 3016 3019 3020 3021 3023 3025 3027 3028 3028 3030 3032 3034 3035 3035 3036 3037 3038 3038 3039 3040 3041 3042 3042 3043 3043 3043 3043 3044 3044 3044 3044 3044 3044 3044 3044 3044 3045 3045 3045 3045 3046 3045 3044 3045 3045 3045 3045 3045 3045 3044 3043 3043 3042 3041 3041 3040 3039 3038 3037 3037 3036
3008 3009 3011 3010 3007 3008 3009 3007 3007 3006 2998 2991 2992 2996 2999 3002 3004 3007 3005 3000 3001 3004 3006 3008 3010 3011 3013 3015 3016 3018 3020 3020 3020 3021 3025 3028 3029 3029 3030 3031 3031 3032 3033 3034 3035 3036 3037 3037 3037 3038 3038 3038 3039 3039 3039 3039 3039 3039 3039 3039 3040 3040 3040 3040 3041 3041 3040 3040 3041 3040 3040 3040 3040 3039 3038 3038 3037 3037 3037 3036 3035 3034 3033 3033 3032 3032
3002 3003 3005 3004 3002 3003 3004 3001 3000 2997 2990 2987 2990 2992 2996 2999 3001 3004 3003 2996 2994 2997 3000 3003 3006 3006 3007 3010 3010 3012 3014 3013 3013 3017 3023 3024 3024 3025 3026 3025 3026 3027 3028 3029 3030 3031 3032 3032 3032 3032 3033 3034 3034 3034 3034 3034 3034 3034 3034 3035 3035 3035 3036 3036 3036 3036 3036 3036 3036 3035 3035 3035 3034 3034 3033 3033 3033 3032 3032 3031 3030 3029 3029 3028 3028 3027
2995 2997 2998 2998 2996 2997 2997 2994 2992 2989 2986 2987 2989 2989 2992 2995 2998 3001 2999 2991 2989 2992 2995 2998 3000 3000 3002 3004 3005 3007 3008 3008 3011 3016 3019 3018 3019 3019 3020 3020 3022 3023 3024 3025 3026 3026 3026 3027 3027 3028 3028 3029 3029 3029 3029 3029 3030 3030 3030 3030 3031 3031 3032 3032 3032 3031 3031 3031 3031 3030 3030 3030 3029 3029 3029 3028 3028 3027 3027 3026 3025 3025 3024 3024 3023 3022
2989 2991 2991 2990 2990 2991 2991 2989 2986 2984 2983 2985 2987 2987 2990 2993 2994 2994 2991 2988 2988 2991 2992 2995 2996 2997 2998 3000 3001 3003 3005 3006 3009 3011 3012 3013 3014 3014 3015 3017 3018 3018 3019 3020 3021 3021 3022 3022 3023 3024 3024 3024 3025 3025 3025 3025 3025 3026 3026 3026 3027 3028 3028 3027 3026 3026 3026 3026 3026 3025 3025 3025 3025 3024 3024 3023 3023 3022 3022 3021 3021 3020 3019 3019 3018 3017
2983 2984 2985 2985 2985 2986 2986 2985 2983 2980 2979 2981 2983 2985 2987 2989 2988 2986 2985 2987 2989 2989 2990 2993 2994 2995 2996 2997 2998 2999 3001 3003 3004 3006 3008 3009 3010 3011 3012 3013 3013 3014 3015 3015 3016 3017 3018 3018 3019 3020 3020 3020 3021 3021 3021 3021 3021 3022 3022 3022 3023 3024 3023 3022 3021 3021 3021 3021 3021 3021 3020 3020 3020 3019 3019 3018 3018 3017 3017 3016 3016 3015 3015 3014 3013 3013
2976 2978 2978 2978 2979 2980 2981 2981 2979 2975 2974 2977 2980 2982 2983 2983 2983 2983 2984 2986 2986 2988 2990 2991 2992 2993 2994 2995 2996 2997 2998 2999 3001 3002 3004 3005 3006 3007 3008 3008 3009 3010 3010 3011 3012 3013 3014 3014 3015 3016 3016 3017 3017 3017 3017 3018 3018 3018 3018 3019 3019 3019 3017 3016 3017 3017 3016 3016 3016 3016 3016 3015 3015 3015 3014 3014 3013 3013 3012 3012 3011 3010 3010 3009 3008 3008
2970 2971 2971 2971 2973 2974 2974 2973 2972 2970 2971 2974 2976 2977 2979 2980 2980 2982 2983 2984 2985 2987 2988 2989 2990 2992 2992 2993 2994 2995 2995 2996 2997 2998 2999 3000 3001 3002 3003 3004 3005 3005 3006 3007 3008 3009 3010 3011 3011 3012 3012 3012 3013 3013 3014 3014 3014 3014 3014 3015 3014 3013 3012 3012 3012 3012 3012 3012 3012 3011 3011 3011 3010 3010 3010 3009 3008 3008 3007 3007 3006 3005 3005 3004 3003 3002
2965 2965 2965 2966 2968 2968 2968 2968 2968 2968 2970 2972 2973 2974 2976 2977 2978 2980 2981 2982 2983 2984 2985 2986 2987 2988 2989 2990 2991 2991 2992 2993 2993 2994 2995 2996 2997 2998 2999 3000 3001 3002 3003 3003 3004 3005 3006 3006 3007 3008 3008 3008 3009 3009 3010 3010 3009 3009 3010 3010 3008 3007 3007 3007 3007 3007 3007 3007 3007 3007 3007 3006 3006 3005 3005 3004 3004 3003 3003 3002 3001 3000 2999 2999 2998 2996
2960 2961 2961 2963 2964 2965 2965 2965 2966 2967 2968 2970 2971 2973 2974 2975 2977 2978 2979 2980 2981 2981 2982 2983 2983 2984 2985 2986 2986 2988 2989 2990 2990 2991 2992 2993 2994 2995 2996 2997 2997 2998 2999 3000 3000 3001 3002 3002 3003 3003 3004 3004 3005 3005 3005 3005 3004 3004 3005 3004 3003 3003 3003 3002 3002 3003 3003 3003 3003 3002 3002 3002 3001 3001 3000 3000 2999 2998 2998 2996 2996 2995 2994 2993 2992 2991
2958 2958 2959 2960 2961 2962 2962 2963 2964 2965 2967 2969 2970 2971 2972 2973 2975 2976 2976 2977 2978 2979 2979 2980 2980 2981 2982 2982 2984 2985 2986 2987 2988 2989 2989 2990 2991 2992 2992 2993 2994 2995 2996 2996 2997 2997 2998 2999 2999 2999 3000 3000 3000 3000 3000 3000 2999 3000 3000 2999 2999 2999 2998 2998 2998 2999 2998 2998 2998 2997 2997 2997 2996 2996 2996 2995 2994 2993 2992 2991 2990 2989 2988 2988 2987 2986
2956 2956 2956 2957 2958 2959 2959 2960 2962 2963 2965 2966 2967 2968 2969 2970 2971 2972 2973 2974 2975 2975 2976 2977 2977 2978 2979 2980 2981 2982 2983 2984 2985 2986 2987 2988 2988 2989 2990 2990 2991 2991 2992 2992 2993 2993 2994 2995 2995 2995 2996 2996 2995 2996 2995 2995 2995 2995 2995 2995 2995 2995 2994 2994 2994 2994 2994 2993 2993 2992 2992 2992 2991 2991 2990 2989 2988 2987 2986 2985 2985 2983 2983 2982 2981 2980
2953 2953 2953 2954 2955 2955 2956 2958 2959 2960 2961 2962 2963 2964 2966 2967 2968 2969 2970 2970 2971 2972 2973 2974 2974 2975 2976 2977 2978 2979 2980 2981 2982 2983 2984 2984 2985 2986 2986 2987 2987 2988 2988 2989 2989 2990 2990 2991 2991 2991 2991 2991 2991 2991 2991 2991 2991 2990 2990 2991 2991 2990 2990 2990 2990 2989 2989 2988 2988 2988 2987 2986 2986 2985 2984 2983 2982 2981 2981 2980 2979 2978 2977 2977 2976 2975
2949 2949 2950 2951 2951 2952 2953 2955 2957 2957 2958 2958 2960 2961 2962 2963 2964 2965 2966 2967 2968 2969 2970 2971 2971 2972 2973 2974 2975 2976 2977 2978 2979 2980 2980 2981 2982 2983 2983 2983 2984 2984 2984 2985 2986 2986 2986 2986 2986 2987 2987 2987 2987 2987 2987 2987 2986 2986 2986 2986 2986 2986 2986 2985 2985 2984 2984 2984 2983 2983 2982 2981 2980 2979 2978 2977 2977 2976 2975 2974 2973 2972 2972 2971 2970 2969
2945 2946 2947 2948 2948 2949 2951 2952 2954 2954 2955 2956 2957 2958 2959 2960 2961 2962 2963 2964 2965 2966 2967 2968 2968 2970 2971 2971 2972 2973 2974 2975 2976 2976 2977 2978 2979 2979 2980 2980 2981 2981 2981 2981 2981 2982 2982 2982 2982 2983 2983 2982 2982 2982 2982 2982 2982 2982 2982 2982 2982 2981 2981 2980 2980 2979 2979 2978 2978 2977 2976 2975 2974 2973 2972 2971 2971 2970 2969 2968 2967 2966 2966 2965 2964 2963